Regional Weather Roundup
Issued by NWS

Home | Current Version | Previous Version | Graphics & Text | Print | Product List | Glossary On
Versions: 1 2 3 4 5 6 7 8 9 10 11 12 13 14 15 16 17 18 19 20 21 22 23 24 25 26 27 28 29 30 31 32 33 34 35 36 37 38 39 40 41 42 43 44 45 46 47 48 49 50
000
ASUS43 KLOT 172203
RWRIL

ILLINOIS REGIONAL WEATHER ROUNDUP
NATIONAL WEATHER SERVICE CHICAGO/ROMEOVILLE IL
400 PM CST TUE JAN 17 2017

NOTE: "FAIR" INDICATES FEW OR NO CLOUDS BELOW 12,000 FEET WITH NO
SIGNIFICANT WEATHER AND/OR OBSTRUCTIONS TO VISIBILITY.

* THESE STATIONS ARE NOT UNDER NWS QUALITY CONTROL. THEY ALSO MAY NOT
  REPORT WEATHER SUCH AS PRECIPITATION OR FOG.

ILZ001-002-007-009-015-016-024-172300-
NORTHWEST ILLINOIS

CITY           SKY/WX    TMP DP  RH WIND       PRES   REMARKS
MOLINE         CLOUDY    36  34  92 W10       29.98R FOG     WCI  28
STERLING*      CLOUDY    35  34  96 W14       29.95R FOG     WCI  26
SAVANNA*       CLOUDY    36  33  90 W9        29.95R WCI  29
$$

ILZ003-004-008-010-011-017-018-172300-
NORTH CENTRAL ILLINOIS

CITY           SKY/WX    TMP DP  RH WIND       PRES   REMARKS
ROCKFORD       CLOUDY    36  33  89 W10       29.94R FOG     WCI  28
FREEPORT*      CLOUDY    34  33  99 W8        29.94R FOG     WCI  27
ROCHELLE*      CLOUDY    35  34  97 W13       29.93R FOG     WCI  26
DE KALB*       CLOUDY    35  35  99 W10G16    29.92R FOG     WCI  27
$$

ILZ005-006-012>014-019>023-172300-
NORTHEAST ILLINOIS

CITY           SKY/WX    TMP DP  RH WIND       PRES   REMARKS
CHICAGO-OHARE  CLOUDY    37  35  92 W13       29.90R WCI  29
CHICAGO-MIDWAY DRIZZLE   36  35  96 W12       29.91R WCI  28
AURORA         CLOUDY    36  34  92 W15       29.92R FOG     WCI  27
LANSING*       CLOUDY    37  37 100 SW12      29.93R FOG     WCI  29
JOLIET*        CLOUDY    37  37  97 W10       29.94R WCI  30
WAUKEGAN       CLOUDY    37  35  92 VRB7      29.89R FOG     WCI  32
DUPAGE AIRPORT CLOUDY    36  33  89 W13G23    29.90R FOG     WCI  27
KANKAKEE*      CLOUDY    37  36  98 W9        29.96R FOG     WCI  30
WHEELING       CLOUDY    37  35  92 W9        29.91R WCI  30
MORRIS*        CLOUDY    36  35  97 W12       29.94R FOG     WCI  28
ROMEOVILLE*    CLOUDY    36  36 100 W12G18    29.93R FOG     WCI  27
NORTHERLY ISL    N/A     38  35  89 SW8         N/A  WCI  32
$$

LMZ740>746-172300-
SOUTHERN LAKE MICHIGAN

STATION/POSITION SKY/WX   TEMP    WIND        PRES    VSBY  WAVE
                          AIR SEA DIR/SP/G                  HT/PER
                          (F)     (DEG/KT/KT) (MB)    (MI)  (FT/S)
HARRISON CRIB              39     250/ 16/ 18   N/A
BURNHAM HARBOR             38     250/  6/ 12   N/A
CALUMET HARBOR             38     230/  6/ 12 1012.1R
BURNS HARBOR               36     240/  8/  9 1013.5R
$$

ILZ025>027-034>036-040-047-049-050-058-095>099-172300-
WEST-CENTRAL ILLINOIS

CITY           SKY/WX    TMP DP  RH WIND       PRES   REMARKS
QUINCY         CLOUDY    38  35  89 W8        30.06R WCI  32
GALESBURG*     CLOUDY    35  35 100 W10       30.00R WCI  27
MACOMB*        CLOUDY    36  36 100 W15       30.04R FOG     WCI  26
JACKSONVILLE*  CLOUDY    38  36  89 W12       30.05R WCI  31
PITTSFIELD*    CLOUDY    39  37  90 W14       30.07R WCI  31
$$

ILZ028>032-037-038-041>044-048-051>054-059>061-172300-
CENTRAL ILLINOIS

CITY           SKY/WX    TMP DP  RH WIND       PRES   REMARKS
DECATUR        CLOUDY    40  38  93 W13       30.02R
PEORIA         CLOUDY    37  35  92 W13       30.00R WCI  29
LACON*         CLOUDY    36  35  96 W9G16     29.98R WCI  29
LINCOLN*       CLOUDY    39  37  91 W12       30.02R WCI  32
SPRINGFIELD    CLOUDY    41  37  86 W14       30.03R
TAYLORVILLE    CLOUDY    39  37  93 W12       30.04R WCI  32
$$

ILZ033-039-045-046-055>057-062-063-172300-
EAST-CENTRAL ILLINOIS

CITY           SKY/WX    TMP DP  RH WIND       PRES   REMARKS
CHAMPAIGN      CLOUDY    40  37  89 W20       29.99R
RANTOUL*       CLOUDY    41  39  93 W15       29.98R
MATTOON        CLOUDY    42  32  67 W12       30.01R
PARIS*         CLOUDY    42  42  99 W15       30.01R FOG
$$

ILZ079-100>102-172300-
SOUTHWEST ILLINOIS

CITY           SKY/WX    TMP DP  RH WIND       PRES   REMARKS
ALTON          CLOUDY    41  37  87 W21       30.08R
BELLEVILLE     PTSUNNY   45  41  86 W8        30.05S
CAHOKIA*       CLOUDY    45  37  73 W13       30.07R
SPARTA*        CLOUDY    44  38  79 W7        30.08R
$$

ILZ064>066-069>071-074>076-080>082-084>086-088>090-092>094-172300-
SOUTH-CENTRAL ILLINOIS

CITY           SKY/WX    TMP DP  RH WIND       PRES   REMARKS
CARBONDALE     CLOUDY    44  40  85 W7        30.08R
CAIRO*         CLOUDY    45  40  84 W8        30.12R
EFFINGHAM*     CLOUDY    44  44  99 W10       30.06R FOG
MARION         CLOUDY    45  43  93 W7        30.09R
MT. VERNON     CLOUDY    44  39  82 W8        30.08R
CENTRALIA*     CLOUDY    45  40  82 W7        30.05R
SALEM*         CLOUDY    46  39  78 W9        30.06R
METROPOLIS*    CLOUDY    46  40  81 W12       30.11R
$$

ILZ067-068-072-073-078-083-087-091-172300-
SOUTHEAST ILLINOIS

CITY           SKY/WX    TMP DP  RH WIND       PRES   REMARKS
LAWRENCEVILLE  CLOUDY    45  44  97 W8        30.04R FOG
FLORA*         CLOUDY    46  40  77 W9        30.05R
FAIRFIELD*     CLOUDY    44  40  86 W7        30.06R
HARRISBURG*    CLOUDY    44  41  88 W10       30.08R
ROBINSON*      CLOUDY    44  41  90 W12       30.04R
CARMI*         CLOUDY    44  40  88 W9        30.07R
$$

ABBREVIATIONS USED IN REMARKS
   TC - TEMPERATURE IN CELSIUS
  WCI - WIND CHILL INDEX
   HX - HEAT INDEX
  VSB - VISIBILITY
$$





USA.gov is the U.S. government's official web portal to all federal, state and local government web resources and services.